Погода в Пятигорском

Украина / Харьковская область     49°26′28″N   36°36′05″E
темп.,
°C
ветер,
м/с
пор.,
м/с
влажн.,
%
обл.,
%
осадки,
мм/ч
давл.,
гПа
погр.,
м
7 августа, вс
вс700:00+21св384728 0.0 1015131
03:00+19всв33467 0.0 101532
06:00+19св33490 0.0 101543
09:00+26всв46350 0.0 1015398
12:00+31св55250 0.0 10151499
15:00+33св33214 0.0 10143382
18:00+31с572934 0.0 1014401
21:00+25с463974 0.0 101590
8 августа, пн
пн800:00+21ссв33489 0.0 101540
03:00+20всв22425 0.0 101612
06:00+20в1242100 0.0 101611
09:00+26св223482 0.0 1017247
12:00+32св232286 0.0 10171710
15:00+34ссв23176 0.0 10163856
18:00+30ссв362642 0.0 1016150
21:00+24св35375 0.0 101755
9 августа, вт
вт900:00+22всв33385 0.0 101727
03:00+21св22415 0.0 101713
06:00+20с22465 0.0 101711
09:00+27всв22335 0.0 1017306
12:00+33всв22225 0.0 10171307
15:00+34ссз22185 0.0 10153576
18:00+33ссз342265 0.0 1014360
21:00+28ссв383195 0.0 1015133
10 августа, ср
ср1000:00+24св34405 0.0 101546
03:00+22св22375 0.0 101411
06:00+20с224173 0.0 101524
09:00+27св3433100 0.0 1015360
12:00+32ссв3224100 0.0 10141095
15:00+34ссз5620100 0.0 10123210
18:00+31с7831100 0.0 1013973
21:00+24ссв91663100 0.0 1014502
11 августа, чт
чт1100:00+22св71666100 0.0 1014464
03:00+21св61266100 0.0 1014424
06:00+19ссв61271100 0.0 1015433
09:00+23св81056100 0.0 1016521
12:00+25св6950100 0.0 1016781
15:00+31св783385 0.0 10151455
18:00+30ссв893511 0.0 10151230
21:00+24св714526 0.0 1016499